User: anonymous   Login
Location: Beang
(6.6177°N, 10.9863°W)
Time: 12:29:29
(UTC+00:00)
Language:

SL-16 R/B - Orbit

View from above orbital plane
View from above orbital plane
View from above satellite
View from above satellite

Ground track
Ground track

The orbit data is extracted from the following two-line orbital elements,

1 28353U 04021B   20218.64781604 -.00000269 +00000-0 -11569-3 0  9991
2 28353 070.9991 196.1505 0007551 263.7198 096.3064 14.14232729834096
Epoch (UTC): 05 August 2020 15:32:51
Eccentricity: 0.0007551
inclination: 70.9991°
perigee height: 839 km
apogee height: 850 km
right ascension of ascending node: 196.1505°
argument of perigee: 263.7198°
revolutions per day: 14.14232729
mean anomaly at epoch: 96.3064°
orbit number at epoch: 83409

The dashed part of the orbit path shows where the satellite is in the earth's shadow,  

DLR